Regional Weather Roundup
Issued by NWS

Home | Current Version | Previous Version | Text Only | Print | Product List | Glossary Off
Versions: 1 2 3 4 5 6 7 8 9 10 11 12 13 14 15 16 17 18 19 20 21 22 23 24 25 26 27 28 29 30 31 32 33 34 35 36 37 38 39 40 41 42 43 44 45 46 47 48 49 50

000
ASUS43 KMKX 270811
RWRWI

WISCONSIN REGIONAL WEATHER ROUNDUP
NATIONAL WEATHER SERVICE MILWAUKEE/SULLIVAN WI
200 AM CST THU NOV 27 2014

NOTE: "FAIR" INDICATES FEW OR NO CLOUDS BELOW 12,000 FEET WITH NO
SIGNIFICANT WEATHER AND/OR OBSTRUCTIONS TO VISIBILITY.

WIZ001-002-006>008-014>016-023>028-270900-
NORTHWEST WISCONSIN

CITY           SKY/WX    TMP DP  RH WIND       PRES   REMARKS
SUPERIOR ARPT  CLEAR     -1  -7  78 NW8       30.47R WCI -16
ASHLAND        LGT SNOW   7   3  84 NW5       30.40R FOG     WCI  -2
HAYWARD        CLEAR      2  -2  83 VRB3      30.37R
SIREN          CLEAR      2  -5  72 N7        30.44R WCI -11
CUMBERLAND     CLEAR      3  -4  72 NW10      30.37R WCI -12
RICE LAKE      CLEAR      6  -1  72 NW8       30.38R WCI  -7
CHETEK         CLEAR      6   0  76 MISG      30.37R
LADYSMITH      CLOUDY     9   5  82 NW12      30.34R WCI  -6
EAU CLAIRE     CLOUDY    12   5  73 N8        30.36R WCI   0
MENOMONIE      CLEAR     11   3  69 NW15      30.38R WCI  -5
NEW RICHMOND   CLEAR      5  -3  70 N7        30.42R WCI  -7
OSCEOLA        CLEAR      6  -2  69 N9        30.46R WCI  -8
$$

WIZ003>005-009-010-017-018-270900-
NORTH CENTRAL WISCONSIN

CITY           SKY/WX    TMP DP  RH WIND       PRES   REMARKS
MANITOWISH WTR CLOUDY    11   8  86 N6        30.24R WCI   1
ARBOR VITAE    PTCLDY    12   8  83 N7        30.23R WCI   2
WOODRUFF       PTCLDY    12   8  83 N7        30.23R WCI   2
RHINELANDER    LGT SNOW  12   8  84 N3        30.22R FOG
EAGLE RIVER    MOCLDY    12   6  76 N8        30.22R WCI   0
LAND O LAKES   LGT SNOW  10   7  88 N5        30.23R WCI   2
PHILLIPS       LGT SNOW  10   7  85 NW8       30.27R WCI  -1
TOMAHAWK       LGT SNOW  14  10  87 CALM      30.24R
MEDFORD        CLOUDY    13   8  81 NW9       30.25R WCI   1
MERRILL        LGT SNOW  16  13  87 NW7       30.24R WCI   6
$$

WIZ029-030-035-036-043>047-270900-
CENTRAL WISCONSIN

CITY           SKY/WX    TMP DP  RH WIND       PRES   REMARKS
WAUSAU         CLOUDY    18  13  80 NW8       30.23R WCI   8
MOSINEE        CLOUDY    18  18 100 NW9       30.24R WCI   6
MARSHFIELD     FLURRIES  18  12  77 NW14      30.25R WCI   4
STEVENS POINT  CLOUDY    18  14  84 NW9       30.25R WCI   7
WAUPACA        CLOUDY    25  19  80 NW7       30.24R WCI  17
WAUTOMA        CLOUDY    22  17  81 NW6       30.25S WCI  15
WISC RAPIDS    LGT SNOW  20  13  74 NW10      30.27R WCI   9
CAMP DOUGLAS   FLURRIES  21  21 100 NW9       30.28R WCI  11
$$

WIZ011>013-019>022-031-037>040-048>050-270900-
NORTHEAST WISCONSIN

CITY           SKY/WX    TMP DP  RH WIND       PRES   REMARKS
ANTIGO         FLURRIES  16  12  84 N12       30.20R WCI   3
SHAWANO        CLOUDY    25  20  82 NW3       30.23R
OCONTO         MOCLDY    23  20  87 NW7       30.22R WCI  15
STURGEON BAY   CLOUDY    25  19  80 N15       30.19R WCI  12
GREEN BAY      CLOUDY    24  20  84 NW9       30.22R WCI  14
MANITOWOC      LGT SNOW  23  21  92 NW7       30.21R FOG     WCI  15
APPLETON       CLOUDY    23  21  93 NW9       30.22R WCI  13
CLINTONVILLE   CLOUDY    23  19  86 NW7       30.23R WCI  15
OSHKOSH        LGT SNOW  23  19  85 MISG      30.22R FOG
$$

WIZ032>034-041-042-053>061-270900-
SOUTHWEST WISCONSIN

CITY           SKY/WX    TMP DP  RH WIND       PRES   REMARKS
LA CROSSE      CLOUDY    23  15  71 NW15      30.33R WCI  10
SPARTA         CLOUDY    22  17  81 NW12      30.31R WCI  10
VIROQUA        CLOUDY    21  18  86 NW9       30.26R WCI  11
BOSCOBEL       CLOUDY    25  19  78 NW3       30.31R
PRAIRIE DU CHI CLOUDY    25  18  75 NW5       30.32R WCI  19
PLATTEVILLE    CLOUDY    24  20  86 NW5       30.28R WCI  18
$$

WIZ056-057-062-063-064-067-068-270900-
SOUTH CENTRAL WISCONSIN

CITY           SKY/WX    TMP DP  RH WIND       PRES   REMARKS
REEDSBURG      CLOUDY    23  19  86 NW7       30.26R WCI  15
BARABOO/DELLS  CLOUDY    23  20  89 N8        30.25R WCI  13
LONE ROCK      CLOUDY    26  19  74 W6        30.29R WCI  19
MINERAL POINT  CLOUDY    25  21  86 NW7       30.25R WCI  17
MADISON        CLOUDY    22  19  89 NW5       30.25R WCI  16
MIDDLETON      CLOUDY    22  20  93 W7        30.25R WCI  13
WATERTOWN      LGT SNOW  20  20  99 NW5       30.23R WCI  13
MONROE         CLOUDY    21  21 100 NW7       30.23S WCI  13
JANESVILLE     CLOUDY    21  19  93 W6        30.24R FOG     WCI  14
$$

WIZ051-052-058>065-066-070>072-270900-
SOUTHEAST WISCONSIN

CITY           SKY/WX    TMP DP  RH WIND       PRES   REMARKS
MILWAUKEE      MOCLDY    22  16  78 NW8       30.20R WCI  12
WAUKESHA       MOCLDY    19  18  93 NW10      30.22R FOG     WCI   8
MILWAUKEE/TIMM CLOUDY    23  19  86 NW9       30.22R WCI  13
RACINE         PTCLDY    20  15  81 NW6       30.22R WCI  12
BURLINGTON     PTCLDY    18  16  90 NW8       30.21R WCI   8
KENOSHA        PTCLDY    19  15  84 NW8       30.21R FOG     WCI   9
FOND DU LAC    LGT SNOW  23  19  85 NW9       30.22R FOG     WCI  13
SHEBOYGAN      LGT SNOW  22  19  89 NW7       30.21R FOG     WCI  13
WEST BEND      LGT SNOW  21  19  93 NW8       30.21R WCI  12
JUNEAU         LGT SNOW  21  19  93 NW5       30.23S WCI  15
$$

LSZ147-162-270900-
LAKE SUPERIOR

STATION/POSITION TIME  TEMP    WIND        PRES    WAVE
                       AIR SEA DIR/SP/G            HT/PER
                 (UTC) (F)     (DEG/KT/KT) (MB)    (FT/S)
DEVILS ISLAND    0800    9      10/ 17/ 19 1031.2R
PORT WING        0740    9     330/ 12/ 15 1029.8R
SAXON HARBOR     0700   16     320/ 14/ 19 1027.4R
$$

LMZ867-665-643>646-270900-
LAKE MICHIGAN

STATION/POSITION TIME  TEMP    WIND        PRES    WAVE
                       AIR SEA DIR/SP/G            HT/PER
                 (UTC) (F)     (DEG/KT/KT) (MB)    (FT/S)
CHAMBERS ISLAND  0700   27     320/ 16/ 20 1022.4R
N MID LAKE BUOY  0750   29 42  350/ 23/ 27 1021.9F   1/ 3
NORTHPORT PIER   0704   29     350/ 19/ 25 1021.7S
ALGOMA LAKESHORE 0658          320/  8/ 10   N/A
KEWAUNEE LAKESHO 0700   23     300/  4/  6 1021.2R
SHEBOYGAN LAKESH 0800   23 35  290/  9/ 11 1024.2R
PORT WASHINGTON  0700   22     310/  8/ 13 1023.4S
MILWAUKEE LAKESH 0700   23     300/  7/ 10   N/A
S MID LAKE BUOY  0750   32 42  320/ 17/ 21 1022.3R   4/ 6
KENOSHA   LAKESH 0800   21     310/ 12/ 15 1022.7R
$$

TC  - TEMPERATURE IN CELSIUS
VSB - VISIBILITY IN STATUTE MILES
WCI - WIND CHILL INDEX
HX  - HEAT INDEX




USA.gov is the U.S. government's official web portal to all federal, state and local government web resources and services.